Weather History for Beatrice, NE

Change the Weather History Date:

Monday, January 6, 2014

  Actual Average Record
Temperature  
Mean Temperature 0 °F -  
Max Temperature 9 °F 30 °F 64 °F (1956)
Min Temperature -9 °F 9 °F -15 °F (1971)
Degree Days  
Heating Degree Days 65    
Moisture  
Dew Point -13 °F    
Average Humidity 56    
Maximum Humidity 66    
Minimum Humidity 43    
Precipitation  
Precipitation 0.00 in - - ()
Sea Level Pressure  
Sea Level Pressure 30.44 in    
Wind  
Wind Speed 10 mph (WNW)    
Max Wind Speed 24 mph    
Max Gust Speed 26 mph    
Visibility 10 miles    
Events      
Averages and records for this station are not official NWS values.
T = Trace of Precipitation, MM = Missing Value Source: NWS Daily Summary

Daily Weather History Graph

Daily Weather History Graph

Search for Another Location

Airport:

Trip Planner

Search our weather history database for the weather conditions in past years. The results will help you decide how hot, cold, wet, or windy it might be!

Date:

Astronomy

Jan. 06, 2014 Rise Set
Actual Time 7:49 AM CST 5:16 PM CST
Civil Twilight 7:19 AM CST 5:46 PM CST
Nautical Twilight 6:45 AM CST 6:20 PM CST
Astronomical Twilight 6:12 AM CST 6:53 PM CST
Moon 11:05 AM CST (1/6) 11:51 PM CST (1/6)
Length of Visible Light 10h 27m
Length of Day
9h 26m
Waxing Crescent, 35% of the Moon is Illuminated
Jan 6
Waxing Crescent
Jan 7
First Quarter
Jan 15
Full
Jan 23
Last Quarter
Jan 30
New

Hourly Weather History & Observations

Time (CST) Temp. Windchill Dew Point Humidity Pressure Visibility Wind Dir Wind Speed Gust Speed Precip Events Conditions
12:15 AM -7.4 °F -24.4 °F -19.3 °F 56% 30.52 in 10.0 mi NW 9.2 mph - N/A   Clear
12:35 AM -7.6 °F -23.4 °F -19.3 °F 57% 30.52 in 10.0 mi WNW 8.1 mph - N/A   Clear
12:55 AM -8.7 °F -23.4 °F -19.5 °F 59% 30.51 in 10.0 mi WNW 6.9 mph - N/A   Clear
1:15 AM -8.5 °F -24.5 °F -19.3 °F 59% 30.51 in 10.0 mi WNW 8.1 mph - N/A   Clear
1:35 AM -9.0 °F -23.8 °F -19.5 °F 60% 30.50 in 10.0 mi WNW 6.9 mph - N/A   Clear
1:55 AM -8.0 °F -26.1 °F -19.1 °F 58% 30.49 in 10.0 mi WNW 10.4 mph - N/A   Clear
2:15 AM -8.0 °F -25.0 °F -18.6 °F 60% 30.50 in 10.0 mi WNW 9.2 mph - N/A   Clear
2:35 AM -8.5 °F -25.7 °F -18.4 °F 62% 30.50 in 10.0 mi WNW 9.2 mph - N/A   Clear
2:55 AM -8.1 °F -26.3 °F -18.4 °F 61% 30.50 in 10.0 mi WNW 10.4 mph - N/A   Clear
3:15 AM -8.1 °F -25.3 °F -17.9 °F 63% 30.51 in 10.0 mi WNW 9.2 mph - N/A   Clear
3:35 AM -8.9 °F -26.2 °F -18.0 °F 64% 30.50 in 10.0 mi West 9.2 mph - N/A   Clear
3:55 AM -9.4 °F -25.6 °F -17.9 °F 66% 30.49 in 10.0 mi WNW 8.1 mph - N/A   Clear
4:15 AM -8.7 °F -25.9 °F -18.2 °F 63% 30.49 in 10.0 mi WNW 9.2 mph - N/A   Clear
4:35 AM -8.0 °F -25.0 °F -18.4 °F 60% 30.48 in 10.0 mi NW 9.2 mph - N/A   Clear
4:55 AM -7.6 °F -28.3 °F -18.4 °F 59% 30.49 in 10.0 mi NW 13.8 mph - N/A   Clear
5:15 AM -7.6 °F -25.7 °F -18.4 °F 59% 30.48 in 10.0 mi WNW 10.4 mph - N/A   Clear
5:35 AM -7.1 °F -26.8 °F -18.4 °F 58% 30.49 in 10.0 mi WNW 12.7 mph - N/A   Clear
5:55 AM -7.1 °F -26.8 °F -18.6 °F 57% 30.48 in 10.0 mi WNW 12.7 mph - N/A   Clear
6:15 AM -7.1 °F -25.0 °F -18.4 °F 58% 30.49 in 10.0 mi WNW 10.4 mph - N/A   Clear
6:35 AM -7.6 °F -25.7 °F -18.4 °F 59% 30.49 in 10.0 mi WNW 10.4 mph - N/A   Clear
6:55 AM -7.6 °F -25.7 °F -17.9 °F 61% 30.48 in 10.0 mi WNW 10.4 mph - N/A   Clear
7:15 AM -7.8 °F -26.8 °F -18.0 °F 61% 30.48 in 10.0 mi WNW 11.5 mph - N/A   Clear
7:35 AM -8.0 °F -27.1 °F -18.0 °F 61% 30.48 in 10.0 mi WNW 11.5 mph - N/A   Clear
7:55 AM -8.3 °F -25.5 °F -18.2 °F 62% 30.48 in 10.0 mi WNW 9.2 mph - N/A   Clear
8:15 AM -7.6 °F -27.5 °F -17.5 °F 62% 30.48 in 10.0 mi WNW 12.7 mph - N/A   Clear
8:35 AM -5.8 °F -23.4 °F -16.8 °F 59% 30.49 in 10.0 mi WNW 10.4 mph 17.3 mph N/A   Clear
8:55 AM -4.7 °F -23.9 °F -16.1 °F 58% 30.50 in 10.0 mi WNW 12.7 mph - N/A   Clear
9:15 AM -3.6 °F -21.7 °F -15.5 °F 57% 30.50 in 10.0 mi WNW 11.5 mph 17.3 mph N/A   Clear
9:35 AM -2.4 °F -21.7 °F -15.2 °F 55% 30.50 in 10.0 mi WNW 13.8 mph - N/A   Clear
9:55 AM -1.1 °F -21.5 °F -14.6 °F 53% 30.51 in 10.0 mi NW 16.1 mph 21.9 mph N/A   Clear
10:15 AM 0.1 °F -23.6 °F -13.4 °F 53% 30.51 in 10.0 mi NNW 24.2 mph - N/A   Clear
10:35 AM 0.5 °F -21.6 °F -13.5 °F 52% 30.50 in 10.0 mi NW 20.7 mph 25.3 mph N/A   Clear
10:55 AM 1.2 °F -20.7 °F -13.0 °F 51% 30.50 in 10.0 mi NW 20.7 mph 26.5 mph N/A   Clear
11:15 AM 1.9 °F -19.8 °F -12.3 °F 52% 30.50 in 10.0 mi NW 20.7 mph 25.3 mph N/A   Clear
11:35 AM 3.0 °F -17.3 °F -11.2 °F 52% 30.49 in 10.0 mi WNW 18.4 mph - N/A   Clear
11:55 AM 3.0 °F -16.7 °F -11.4 °F 51% 30.48 in 10.0 mi NW 17.3 mph 25.3 mph N/A   Clear
12:15 PM 3.7 °F -16.9 °F -11.0 °F 50% 30.47 in 10.0 mi WNW 19.6 mph 24.2 mph N/A   Clear
12:35 PM 4.3 °F -13.9 °F -10.3 °F 51% 30.46 in 10.0 mi NW 15.0 mph - N/A   Clear
12:55 PM 5.4 °F -15.3 °F -9.4 °F 51% 30.45 in 10.0 mi NW 20.7 mph 25.3 mph N/A   Scattered Clouds
1:15 PM 5.5 °F -12.9 °F -10.1 °F 49% 30.44 in 10.0 mi NW 16.1 mph 23.0 mph N/A   Clear
1:35 PM 6.4 °F -11.7 °F -8.5 °F 50% 30.43 in 10.0 mi NW 16.1 mph 19.6 mph N/A   Clear
1:55 PM 6.6 °F -12.6 °F -9.6 °F 48% 30.42 in 10.0 mi NW 18.4 mph 21.9 mph N/A   Clear
2:15 PM 7.3 °F -9.3 °F -8.9 °F 48% 30.42 in 10.0 mi NW 13.8 mph 20.7 mph N/A   Clear
2:35 PM 7.5 °F -9.1 °F -9.4 °F 46% 30.41 in 10.0 mi WNW 13.8 mph 19.6 mph N/A   Clear
2:55 PM 8.1 °F -8.4 °F -9.2 °F 45% 30.42 in 10.0 mi WNW 13.8 mph 20.7 mph N/A   Clear
3:15 PM 8.6 °F -7.0 °F -8.3 °F 46% 30.41 in 10.0 mi NW 12.7 mph 18.4 mph N/A   Clear
3:35 PM 8.8 °F -6.8 °F -8.9 °F 45% 30.42 in 10.0 mi WNW 12.7 mph - N/A   Clear
3:55 PM 9.1 °F -7.7 °F -8.5 °F 45% 30.41 in 10.0 mi NW 15.0 mph - N/A   Clear
4:15 PM 9.1 °F -7.0 °F -9.2 °F 43% 30.41 in 10.0 mi WNW 13.8 mph 18.4 mph N/A   Clear
4:35 PM 8.6 °F -4.7 °F -8.9 °F 45% 30.41 in 10.0 mi NW 9.2 mph - N/A   Clear
4:55 PM 8.1 °F -3.2 °F -8.7 °F 47% 30.40 in 10.0 mi NW 6.9 mph - N/A   Clear
5:15 PM 7.0 °F -3.3 °F -9.6 °F 47% 30.39 in 10.0 mi WNW 5.8 mph - N/A   Clear
5:35 PM 5.4 °F -1.7 °F -9.8 °F 50% 30.38 in 10.0 mi WNW 3.5 mph - N/A   Clear
5:55 PM 5.4 °F -3.6 °F -10.1 °F 49% 30.38 in 10.0 mi West 4.6 mph - N/A   Clear
6:15 PM 2.5 °F -5.0 °F -11.0 °F 53% 30.38 in 10.0 mi WSW 3.5 mph - N/A   Clear
6:35 PM 1.9 °F -5.6 °F -10.7 °F 56% 30.37 in 10.0 mi SW 3.5 mph - N/A   Clear
6:55 PM 2.3 °F -7.2 °F -9.6 °F 58% 30.37 in 10.0 mi SSW 4.6 mph - N/A   Clear
7:15 PM -0.4 °F -8.3 °F -10.5 °F 62% 30.37 in 10.0 mi SW 3.5 mph - N/A   Clear
7:35 PM 1.4 °F -8.3 °F -10.3 °F 58% 30.38 in 10.0 mi SW 4.6 mph - N/A   Clear
7:55 PM 0.3 °F - -10.3 °F 61% 30.37 in 10.0 mi Calm Calm - N/A   Clear
8:15 PM 0.3 °F - -10.3 °F 61% 30.36 in 10.0 mi Calm Calm - N/A   Clear
8:35 PM 0.7 °F -9.1 °F -10.3 °F 60% 30.36 in 10.0 mi SW 4.6 mph - N/A   Clear
8:55 PM -2.0 °F -12.2 °F -11.2 °F 65% 30.35 in 10.0 mi SW 4.6 mph - N/A   Clear
9:15 PM -0.6 °F -10.6 °F -10.3 °F 64% 30.35 in 10.0 mi SSW 4.6 mph - N/A   Clear
9:35 PM -0.6 °F -8.5 °F -10.7 °F 62% 30.34 in 10.0 mi SSW 3.5 mph - N/A   Clear
9:55 PM 0.3 °F - -9.9 °F 62% 30.33 in 10.0 mi Calm Calm - N/A   Clear
10:15 PM -0.4 °F -8.3 °F -10.5 °F 62% 30.32 in 10.0 mi South 3.5 mph - N/A   Clear
10:35 PM 0.3 °F -7.5 °F -10.3 °F 61% 30.32 in 10.0 mi South 3.5 mph - N/A   Clear
10:55 PM -0.2 °F -13.2 °F -10.1 °F 63% 30.31 in 10.0 mi SSW 6.9 mph - N/A   Clear
11:15 PM -0.0 °F -11.6 °F -9.9 °F 63% 30.30 in 10.0 mi SSW 5.8 mph - N/A   Clear
11:35 PM 1.0 °F -8.7 °F -9.4 °F 62% 30.27 in 10.0 mi East 4.6 mph - N/A   Clear
11:55 PM -0.2 °F -10.1 °F -10.1 °F 63% 30.27 in 10.0 mi South 4.6 mph - N/A   Clear